Location: Colonia Mina de C?rbuni
(46.1667°N, 22.7167°E)
Time: 07:19:50
(UTC+00:00)

Tiros 1 - Pass Details

Date: 01 May 2024
Orbit: 624 x 657 km, 48.4° (Epoch: 26 May)

Event Time Altitude Azimuth Distance (km) Brightness Sun altitude
Rises 18:45:43 0° 239° (WSW) 2,957 10.9 -11.0°
Reaches altitude 10° 18:48:04 10° 237° (WSW) 2,044 10.0 -11.3°
Maximum altitude 18:52:45 66° 155° (SSE) 701 7.1 -11.9°
Drops below altitude 10° 18:57:23 10° 74° (ENE) 2,029 9.4 -12.6°
Enters shadow 18:59:20 - 72° (ENE) 2,784 10.1 -12.8°
